Location: Burland Observatory
(39.4088°N, 105.4217°W)
Time: 19:10:21
(UTC-07:00)

Vanguard 3 - Pass Details

Date: 10 December 2019
Orbit: 507 x 3264 km, 33.4° (Epoch: 28 January)

Event Time Altitude Azimuth Distance (km) Brightness Sun altitude
Rises 14:04:12 0° 279° (W) 5,896 11.8 20.7°
Reaches altitude 10° 14:08:07 10° 271° (W) 5,221 11.8 20.3°
Maximum altitude 14:22:13 36° 213° (SSW) 4,252 12.6 18.7°
Drops below altitude 10° 14:38:56 10° 156° (SSE) 6,118 12.0 16.8°
Sets 14:44:09 0° 149° (SSE) 6,979 12.2 16.1°
